• In Deutschland
  • Länderverzeichnis
  • Für 7 Tage
  • Wassertemperatur
  • Satellitenkarten
  • Wetterkarte
  • Widgets
  • user-avatar
    Anmelden

    Stündliche Wetter Longkou

    Heute, 24 Juni, Sonntag

    Zeit Temperatur Niederschläge Wind Luftdruck Luftfeuchtigkeit
    00:00 +27°C° 0 mm 6 m/S 753 mmHg 45%
    01:00 +27°C° 0 mm 6 m/S 753 mmHg 47%
    02:00 +26°C° 0 mm 6 m/S 753 mmHg 50%
    03:00 +26°C° 0 mm 6 m/S 753 mmHg 52%
    04:00 +26°C° 0 mm 6 m/S 754 mmHg 54%
    05:00 +25°C° 0 mm 5 m/S 754 mmHg 56%
    06:00 +27°C° 0 mm 5 m/S 754 mmHg 51%
    07:00 +29°C° 0 mm 5 m/S 754 mmHg 46%
    08:00 +33°C° 0 mm 4 m/S 754 mmHg 38%
    09:00 +34°C° 0 mm 3 m/S 754 mmHg 35%
    10:00 +36°C° 0 mm 3 m/S 754 mmHg 32%
    11:00 +37°C° 0 mm 3 m/S 754 mmHg 28%
    12:00 +38°C° 0 mm 3 m/S 754 mmHg 27%
    13:00 +38°C° 0 mm 2 m/S 754 mmHg 25%
    14:00 +39°C° 0 mm 2 m/S 754 mmHg 24%
    15:00 +38°C° 0 mm 3 m/S 754 mmHg 25%
    16:00 +37°C° 0 mm 4 m/S 754 mmHg 27%
    17:00 +37°C° 0 mm 5 m/S 754 mmHg 29%
    18:00 +34°C° 0 mm 6 m/S 754 mmHg 33%
    19:00 +32°C° 0 mm 6 m/S 754 mmHg 37%
    20:00 +28°C° 0 mm 4 m/S 754 mmHg 42%
    21:00 +28°C° 0 mm 5 m/S 754 mmHg 44%
    22:00 +27°C° 0 mm 5 m/S 755 mmHg 47%
    23:00 +26°C° 0 mm 6 m/S 755 mmHg 50%

    Morgen, 25 Juni, Montag

    Zeit Temperatur Niederschläge Wind Luftdruck Luftfeuchtigkeit
    00:00 +24°C° 0 mm 6 m/S 755 mmHg 55%
    01:00 +24°C° 0 mm 6 m/S 754 mmHg 60%
    02:00 +23°C° 0 mm 6 m/S 754 mmHg 66%
    03:00 +23°C° 0 mm 6 m/S 754 mmHg 69%
    04:00 +23°C° 0 mm 6 m/S 754 mmHg 73%
    05:00 +22°C° 0 mm 6 m/S 754 mmHg 77%
    06:00 +24°C° 0 mm 6 m/S 754 mmHg 75%
    07:00 +26°C° 0 mm 6 m/S 754 mmHg 72%
    08:00 +28°C° 0 mm 6 m/S 755 mmHg 70%
    09:00 +29°C° 0 mm 6 m/S 754 mmHg 66%
    10:00 +32°C° 0 mm 5 m/S 754 mmHg 62%
    11:00 +33°C° 0 mm 5 m/S 754 mmHg 58%
    12:00 +33°C° 0 mm 5 m/S 754 mmHg 59%
    13:00 +33°C° 0 mm 5 m/S 753 mmHg 59%
    14:00 +33°C° 0 mm 5 m/S 753 mmHg 60%
    15:00 +30°C° 1,2 mm 5 m/S 753 mmHg 68%
    16:00 +29°C° 1,2 mm 6 m/S 753 mmHg 77%
    17:00 +27°C° 1,2 mm 6 m/S 753 mmHg 85%
    18:00 +26°C° 2,2 mm 6 m/S 753 mmHg 87%
    19:00 +26°C° 2,2 mm 6 m/S 753 mmHg 88%
    20:00 +26°C° 2,2 mm 6 m/S 752 mmHg 90%
    21:00 +26°C° 3,6 mm 6 m/S 752 mmHg 91%
    22:00 +26°C° 3,6 mm 6 m/S 752 mmHg 92%
    23:00 +26°C° 3,6 mm 5 m/S 751 mmHg 92%

    übermorgen, 26 Juni, Dienstag

    Zeit Temperatur Niederschläge Wind Luftdruck Luftfeuchtigkeit
    00:00 +26°C° 5,9 mm 5 m/S 751 mmHg 93%
    01:00 +26°C° 5,9 mm 4 m/S 750 mmHg 94%
    02:00 +26°C° 5,9 mm 3 m/S 750 mmHg 95%
    03:00 +26°C° 0,1 mm 4 m/S 749 mmHg 96%
    04:00 +25°C° 0,1 mm 4 m/S 749 mmHg 96%
    05:00 +25°C° 0,1 mm 4 m/S 749 mmHg 97%
    06:00 +26°C° 0 mm 4 m/S 749 mmHg 94%
    07:00 +26°C° 0 mm 4 m/S 750 mmHg 92%
    08:00 +27°C° 0 mm 4 m/S 750 mmHg 89%
    09:00 +27°C° 0 mm 4 m/S 750 mmHg 87%
    10:00 +27°C° 0 mm 4 m/S 751 mmHg 84%
    11:00 +27°C° 0 mm 4 m/S 751 mmHg 82%
    12:00 +28°C° 0 mm 4 m/S 751 mmHg 78%
    13:00 +29°C° 0 mm 3 m/S 751 mmHg 73%
    14:00 +30°C° 0 mm 3 m/S 751 mmHg 69%
    15:00 +30°C° 0 mm 3 m/S 751 mmHg 69%
    16:00 +29°C° 0 mm 2 m/S 751 mmHg 68%
    17:00 +29°C° 0 mm 2 m/S 751 mmHg 67%
    18:00 +28°C° 0 mm 2 m/S 751 mmHg 73%
    19:00 +27°C° 0 mm 2 m/S 751 mmHg 78%
    20:00 +25°C° 0 mm 1 m/S 751 mmHg 84%
    21:00 +25°C° 0 mm 2 m/S 751 mmHg 84%
    22:00 +25°C° 0 mm 3 m/S 751 mmHg 84%
    23:00 +25°C° 0 mm 3 m/S 751 mmHg 84%

    27 Juni, Mittwoch

    Zeit Temperatur Niederschläge Wind Luftdruck Luftfeuchtigkeit
    00:00 +25°C° 0 mm 3 m/S 750 mmHg 83%
    01:00 +25°C° 0 mm 4 m/S 750 mmHg 82%
    02:00 +25°C° 0 mm 4 m/S 750 mmHg 82%
    03:00 +25°C° 0 mm 4 m/S 750 mmHg 82%
    04:00 +25°C° 0 mm 3 m/S 750 mmHg 83%
    05:00 +24°C° 0 mm 3 m/S 750 mmHg 84%
    06:00 +27°C° 0 mm 3 m/S 750 mmHg 76%
    07:00 +29°C° 0 mm 3 m/S 750 mmHg 68%
    08:00 +31°C° 0 mm 3 m/S 750 mmHg 60%
    09:00 +33°C° 0 mm 3 m/S 749 mmHg 54%
    10:00 +35°C° 0 mm 3 m/S 749 mmHg 49%
    11:00 +37°C° 0 mm 4 m/S 749 mmHg 44%
    12:00 +37°C° 0 mm 4 m/S 749 mmHg 41%
    13:00 +38°C° 0 mm 4 m/S 748 mmHg 39%
    14:00 +40°C° 0 mm 4 m/S 748 mmHg 36%
    15:00 +38°C° 0 mm 3 m/S 748 mmHg 38%
    16:00 +37°C° 0 mm 3 m/S 747 mmHg 41%
    17:00 +37°C° 0 mm 2 m/S 747 mmHg 43%
    18:00 +34°C° 1,5 mm 3 m/S 748 mmHg 53%
    19:00 +32°C° 1,5 mm 4 m/S 748 mmHg 62%
    20:00 +28°C° 1,5 mm 5 m/S 748 mmHg 71%
    21:00 +28°C° 0,1 mm 5 m/S 748 mmHg 72%
    22:00 +28°C° 0,1 mm 4 m/S 748 mmHg 74%
    23:00 +27°C° 0,1 mm 3 m/S 748 mmHg 75%

    28 Juni, Donnerstag

    Zeit Temperatur Niederschläge Wind Luftdruck Luftfeuchtigkeit
    00:00 +27°C° 0 mm 3 m/S 748 mmHg 77%
    01:00 +27°C° 0 mm 3 m/S 748 mmHg 78%
    02:00 +27°C° 0 mm 3 m/S 748 mmHg 79%
    03:00 +27°C° 0 mm 3 m/S 748 mmHg 81%
    04:00 +26°C° 0 mm 2 m/S 748 mmHg 84%
    05:00 +26°C° 0 mm 1 m/S 748 mmHg 86%
    06:00 +27°C° 0 mm 1 m/S 748 mmHg 81%
    07:00 +29°C° 0 mm 1 m/S 748 mmHg 75%
    08:00 +30°C° 0 mm 1 m/S 748 mmHg 70%
    09:00 +31°C° 0 mm 2 m/S 748 mmHg 64%
    10:00 +34°C° 0 mm 2 m/S 748 mmHg 58%
    11:00 +35°C° 0 mm 2 m/S 748 mmHg 52%
    12:00 +35°C° 0 mm 3 m/S 748 mmHg 51%
    13:00 +35°C° 0 mm 4 m/S 748 mmHg 50%
    14:00 +35°C° 0 mm 5 m/S 748 mmHg 49%
    15:00 +34°C° 0 mm 4 m/S 748 mmHg 50%
    16:00 +33°C° 0 mm 4 m/S 748 mmHg 52%
    17:00 +32°C° 0 mm 4 m/S 748 mmHg 53%
    18:00 +29°C° 0 mm 3 m/S 748 mmHg 58%
    19:00 +28°C° 0 mm 2 m/S 749 mmHg 63%
    20:00 +26°C° 0 mm 2 m/S 749 mmHg 67%
    21:00 +26°C° 0 mm 1 m/S 749 mmHg 68%
    22:00 +26°C° 0 mm 1 m/S 749 mmHg 69%
    23:00 +25°C° 0 mm 1 m/S 749 mmHg 69%

    29 Juni, Freitag

    Zeit Temperatur Niederschläge Wind Luftdruck Luftfeuchtigkeit
    00:00 +25°C° 0 mm 1 m/S 749 mmHg 69%
    01:00 +25°C° 0 mm 1 m/S 749 mmHg 69%
    02:00 +25°C° 0 mm 2 m/S 749 mmHg 68%
    03:00 +24°C° 0 mm 2 m/S 749 mmHg 70%
    04:00 +24°C° 0 mm 2 m/S 749 mmHg 71%
    05:00 +24°C° 0 mm 2 m/S 749 mmHg 72%
    06:00 +25°C° 0 mm 2 m/S 750 mmHg 66%
    07:00 +27°C° 0 mm 2 m/S 750 mmHg 60%
    08:00 +29°C° 0 mm 1 m/S 750 mmHg 54%
    09:00 +30°C° 0 mm 2 m/S 750 mmHg 49%
    10:00 +32°C° 0 mm 2 m/S 750 mmHg 44%
    11:00 +34°C° 0 mm 2 m/S 750 mmHg 39%
    12:00 +34°C° 0 mm 2 m/S 750 mmHg 37%
    13:00 +35°C° 0 mm 2 m/S 750 mmHg 35%
    14:00 +35°C° 0 mm 2 m/S 750 mmHg 33%
    15:00 +35°C° 0 mm 2 m/S 750 mmHg 34%
    16:00 +34°C° 0 mm 1 m/S 750 mmHg 35%
    17:00 +34°C° 0 mm 1 m/S 750 mmHg 36%
    18:00 +32°C° 0 mm 2 m/S 750 mmHg 40%
    19:00 +30°C° 0 mm 2 m/S 750 mmHg 44%
    20:00 +29°C° 0 mm 2 m/S 751 mmHg 49%
    21:00 +28°C° 0 mm 3 m/S 751 mmHg 53%
    22:00 +27°C° 0 mm 3 m/S 751 mmHg 58%
    23:00 +26°C° 0 mm 4 m/S 752 mmHg 62%
    Mehr zeigen